AA2YS Weather Reports


Display with metric or nautical units.
time (UTC)temp
F
wind
direction
speed
MPH
gust
MPH
rain 1hr
in
rain 24hr
in
rain mn
in
humidity
%
barometer
mb
20260510170522 60 248 4.0 9.0 0.00 0.15 0.00 43 1014.7
20260510165544 60 225 4.0 11.0 0.00 0.15 0.00 43 1014.7
20260510164529 60 225 4.0 10.0 0.00 0.15 0.00 41 1014.7
20260510163545 61 270 3.0 11.0 0.00 0.15 0.00 46 1014.6
20260510162523 61 293 2.0 9.0 0.00 0.15 0.00 46 1014.6
20260510161528 60 203 3.0 7.0 0.00 0.15 0.00 45 1014.6
20260510160545 60 203 2.0 9.0 0.00 0.15 0.00 43 1014.5
20260510155523 59 225 4.0 8.0 0.00 0.15 0.00 46 1014.4
20260510154524 60 203 3.0 7.0 0.00 0.15 0.00 49 1014.4
20260510153529 59 248 1.0 4.0 0.00 0.15 0.00 52 1014.5
20260510152621 59 248 3.0 10.0 0.00 0.15 0.00 46 1014.4
20260510151522 58 248 1.0 5.0 0.00 0.15 0.00 53 1014.3
20260510150522 56 270 2.0 10.0 0.00 0.15 0.00 55 1014.1
20260510145522 55 270 1.0 6.0 0.00 0.15 0.00 58 1014.0
20260510144522 54 225 1.0 6.0 0.00 0.15 0.00 58 1013.8
20260510144055 54 180 1.0 6.0 0.00 0.15 0.00 54 1013.7
20260510075020 50 0.0 0.0 0.00 0.15 0.00 92 1008.4
20260510074020 49 0.0 0.0 0.00 0.15 0.00 92 1008.5
20260510073040 49 0.0 0.0 0.00 0.15 0.00 92 1008.3
20260510072019 49 0.0 0.0 0.00 0.15 0.00 92 1008.1
20260510071020 49 0.0 0.0 0.00 0.15 0.00 92 1008.1
20260510070020 49 0.0 0.0 0.00 0.15 0.00 91 1007.9
20260510065020 49 0.0 0.0 0.00 0.15 0.00 91 1008.0
20260510064019 49 0.0 0.0 0.00 0.15 0.00 91 1007.8
20260510063019 49 0.0 0.0 0.00 0.15 0.00 91 1007.3
20260510062020 49 0.0 0.0 0.00 0.15 0.00 91 1007.4
20260510061019 49 0.0 0.0 0.00 0.15 0.00 90 1007.5
20260510060043 49 0.0 0.0 0.00 0.15 0.00 90 1007.3
20260510055019 49 0.0 0.0 0.00 0.15 0.00 90 1007.2
20260510054019 50 0.0 0.0 0.00 0.15 0.00 90 1007.1
20260510053039 50 0.0 0.0 0.00 0.15 0.00 90 1007.1
20260510052019 50 0.0 0.0 0.00 0.15 0.00 90 1006.9
20260510051020 50 0.0 0.0 0.00 0.15 0.00 90 1006.7
20260510050320 50 0.0 0.0 0.00 0.15 0.00 90 1006.8
20260510045600 51 0.0 0.0 0.00 0.15 0.00 90 1006.9
20260510045111 51 0.0 0.0 0.00 0.15 0.00 89 1007.0
20260510044519 51 0.0 0.0 0.00 0.15 0.00 89 1006.8
20260510043519 51 0.0 0.0 0.00 0.15 0.00 89 1006.6
20260510042519 51 0.0 0.0 0.00 0.15 0.00 88 1006.5
20260510041522 51 0.0 0.0 0.00 0.15 0.00 88 1006.6
20260510040621 51 0.0 0.0 0.00 0.15 0.00 88 1006.5
20260510035519 52 0.0 0.0 0.00 0.15 0.15 88 1006.5
20260510034521 52 0.0 0.0 0.00 0.15 0.15 87 1006.3
20260510033520 52 0.0 0.0 0.00 0.15 0.15 87 1006.1
20260510033046 52 0.0 0.0 0.00 0.15 0.15 88 1005.9
20260510032539 52 0.0 0.0 0.00 0.15 0.15 88 1005.8
20260510031520 53 0.0 0.0 0.00 0.15 0.15 87 1005.8
20260510030605 53 0.0 0.0 0.00 0.15 0.15 86 1005.8
20260510030019 53 0.0 0.0 0.00 0.15 0.15 86 1005.7
20260510025632 53 0.0 0.0 0.00 0.15 0.15 86 1005.6
20260510025029 54 0.0 0.0 0.00 0.15 0.15 86 1005.6
20260510024559 54 0.0 0.0 0.00 0.15 0.15 86 1005.7
20260510024053 54 0.0 0.0 0.00 0.15 0.15 87 1005.6
20260510023521 54 0.0 0.0 0.00 0.15 0.15 87 1005.5
20260510023021 54 0.0 0.0 0.00 0.15 0.15 87 1005.4
20260510022520 54 0.0 0.0 0.00 0.15 0.15 87 1005.5
20260510021527 54 0.0 0.0 0.01 0.15 0.15 87 1005.4
20260510021040 55 0.0 0.0 0.01 0.15 0.15 87 1005.4
20260510020040 55 0.0 0.0 0.05 0.15 0.15 86 1005.0
20260510015019 55 0.0 2.0 0.09 0.15 0.15 85 1005.4
20260510014021 55 0.0 0.0 0.11 0.15 0.15 85 1005.4
20260510013520 55 0.0 1.0 0.12 0.15 0.15 85 1005.1
20260510012520 56 158 1.0 6.0 0.13 0.15 0.15 84 1003.9
20260510011520 57 113 1.0 6.0 0.14 0.14 0.14 82 1004.9
20260510010520 58 0.0 2.0 0.12 0.12 0.12 79 1005.4
20260510005518 59 113 1.0 5.0 0.08 0.08 0.08 76 1005.4
20260510004520 60 0.0 3.0 0.05 0.05 0.05 72 1005.5
20260510003520 62 158 1.0 7.0 0.03 0.03 0.03 69 1005.1
20260510002540 64 225 3.0 8.0 0.02 0.02 0.02 66 1004.9
20260510001520 65 0.0 0.0 0.00 0.00 0.00 61 1003.4
20260510000520 65 0.0 0.0 0.00 0.00 0.00 59 1003.1
20260509235540 66 0.0 0.0 0.00 0.00 0.00 58 1003.0
20260509234520 66 0.0 0.0 0.00 0.00 0.00 57 1002.7
20260509233540 66 0.0 0.0 0.00 0.00 0.00 56 1002.6
20260509232539 67 0.0 0.0 0.00 0.00 0.00 56 1002.6
20260509231520 67 0.0 0.0 0.00 0.00 0.00 54 1002.7
20260509230520 67 0.0 3.0 0.00 0.00 0.00 54 1002.5
20260509225519 67 0.0 1.0 0.00 0.00 0.00 54 1002.6
20260509224520 68 158 1.0 7.0 0.00 0.00 0.00 53 1002.9
20260509223519 68 0.0 1.0 0.00 0.00 0.00 53 1003.0
20260509222519 68 180 1.0 6.0 0.00 0.00 0.00 53 1002.8
20260509221519 68 203 1.0 5.0 0.00 0.00 0.00 53 1002.9
20260509220520 68 158 2.0 7.0 0.00 0.00 0.00 53 1002.8
20260509215520 68 158 2.0 6.0 0.00 0.00 0.00 52 1002.9
20260509214539 68 158 1.0 5.0 0.00 0.00 0.00 56 1003.0
20260509213519 69 248 2.0 5.0 0.00 0.00 0.00 52 1003.0
20260509212539 69 180 2.0 7.0 0.00 0.00 0.00 50 1002.8
20260509211519 69 158 3.0 10.0 0.00 0.00 0.00 52 1002.7
20260509210600 69 158 2.0 7.0 0.00 0.00 0.00 51 1002.7
20260509205519 69 158 2.0 9.0 0.00 0.00 0.00 52 1002.6
20260509204519 69 203 1.0 4.0 0.00 0.00 0.00 53 1002.8
20260509203519 69 158 3.0 9.0 0.00 0.00 0.00 51 1003.0
20260509202559 69 180 1.0 6.0 0.00 0.00 0.00 52 1002.9
20260509201600 69 225 1.0 4.0 0.00 0.00 0.00 52 1003.1
20260509200540 69 158 1.0 4.0 0.00 0.00 0.00 56 1003.3
20260509195520 69 158 1.0 6.0 0.00 0.00 0.00 51 1003.6
20260509194519 69 203 1.0 6.0 0.00 0.00 0.00 51 1003.6
20260509193539 70 203 1.0 8.0 0.00 0.00 0.00 54 1003.3
20260509192519 69 158 1.0 7.0 0.00 0.00 0.00 54 1003.6
20260509191540 69 135 1.0 6.0 0.00 0.00 0.00 54 1003.7
20260509190519 69 180 2.0 8.0 0.00 0.00 0.00 53 1003.9
20260509185520 69 158 2.0 8.0 0.00 0.00 0.00 55 1004.0
20260509184519 70 158 5.0 12.0 0.00 0.00 0.00 56 1004.2
20260509183519 70 180 1.0 6.0 0.00 0.00 0.00 61 1004.3
20260509182519 69 180 2.0 7.0 0.00 0.00 0.00 53 1004.5
20260509181519 69 203 1.0 6.0 0.00 0.00 0.00 51 1004.6
20260509180539 68 203 1.0 10.0 0.00 0.00 0.00 51 1004.6
20260509175519 68 225 2.0 7.0 0.00 0.00 0.00 54 1004.6
20260509174519 68 180 1.0 5.0 0.00 0.00 0.00 57 1004.7
20260509173520 69 135 2.0 6.0 0.00 0.00 0.00 59 1004.8
20260509172519 67 158 1.0 7.0 0.00 0.00 0.00 58 1004.9
20260509171539 68 158 1.0 5.0 0.00 0.00 0.00 56 1005.0